UAL1856 KORD-KEWR

Flight info

Callsign UAL1856
Flight time 1h 37m
Altitude 39000
Route DUFEE ELX HAAKK DOXXY SOSIC KEEHO J584 SLT FQM3
Aircraft A21N/M-SDE3FGHIRWY/LB1

Departure

Time 2026-05-04 15:05
Airport Chicago O'Hare International Airport (KORD)

Arrival

Time 2026-05-04 16:43
Airport Newark Liberty International Airport (KEWR)
Time Latitude Longitude Altitude Speed Heading
2026-05-04 14:30 41.97948 -87.91105 665 ft 0 kts 101°
2026-05-04 14:36 41.97949 -87.91105 665 ft 0 kts 101°
2026-05-04 14:51 41.97951 -87.91117 665 ft 2 kts 102°
2026-05-04 14:51 41.97954 -87.91137 665 ft 2 kts 102°
2026-05-04 14:51 41.97957 -87.91157 665 ft 2 kts 102°
2026-05-04 14:52 41.97960 -87.91176 665 ft 2 kts 102°
2026-05-04 14:52 41.97963 -87.91193 665 ft 0 kts 102°
2026-05-04 14:52 41.97965 -87.91208 665 ft 2 kts 86°
2026-05-04 14:52 41.97961 -87.91227 665 ft 2 kts 63°
2026-05-04 14:53 41.97953 -87.91243 665 ft 2 kts 39°
2026-05-04 14:53 41.97946 -87.91250 665 ft 1 kts 27°
2026-05-04 14:53 41.97941 -87.91253 665 ft 0 kts 27°
2026-05-04 14:55 41.97952 -87.91247 665 ft 3 kts 17°
2026-05-04 14:55 41.98004 -87.91305 665 ft 16 kts 294°
2026-05-04 14:55 41.97969 -87.91422 667 ft 13 kts 213°
2026-05-04 14:56 41.97883 -87.91459 667 ft 12 kts 189°
2026-05-04 14:56 41.97795 -87.91479 668 ft 12 kts 189°
2026-05-04 14:56 41.97708 -87.91499 668 ft 12 kts 189°
2026-05-04 14:56 41.97620 -87.91501 668 ft 12 kts 171°
2026-05-04 14:57 41.97531 -87.91482 668 ft 13 kts 171°
2026-05-04 14:57 41.97440 -87.91464 668 ft 13 kts 171°
2026-05-04 14:57 41.97348 -87.91461 668 ft 13 kts 194°
2026-05-04 14:57 41.97256 -87.91488 668 ft 13 kts 182°
2026-05-04 14:58 41.97174 -87.91524 668 ft 13 kts 237°
2026-05-04 14:58 41.97124 -87.91621 668 ft 12 kts 206°
2026-05-04 14:58 41.97048 -87.91589 668 ft 12 kts 118°
2026-05-04 14:58 41.97039 -87.91470 668 ft 13 kts 91°
2026-05-04 14:59 41.97039 -87.91348 668 ft 13 kts 89°
2026-05-04 14:59 41.97040 -87.91220 668 ft 13 kts 90°
2026-05-04 14:59 41.97041 -87.90955 668 ft 14 kts 90°
2026-05-04 15:00 41.97040 -87.90817 668 ft 14 kts 90°
2026-05-04 15:00 41.97040 -87.90678 668 ft 15 kts 90°
2026-05-04 15:00 41.97040 -87.90529 665 ft 17 kts 89°
2026-05-04 15:01 41.97042 -87.90200 662 ft 18 kts 90°
2026-05-04 15:01 41.97039 -87.90017 659 ft 20 kts 90°
2026-05-04 15:01 41.97042 -87.89829 658 ft 20 kts 89°
2026-05-04 15:01 41.97042 -87.89632 655 ft 21 kts 89°
2026-05-04 15:02 41.97042 -87.89434 655 ft 21 kts 90°
2026-05-04 15:02 41.97044 -87.89239 655 ft 20 kts 89°
2026-05-04 15:02 41.97042 -87.89051 655 ft 20 kts 91°
2026-05-04 15:02 41.97042 -87.88864 655 ft 19 kts 88°
2026-05-04 15:03 41.97044 -87.88681 655 ft 19 kts 90°
2026-05-04 15:03 41.97044 -87.88501 655 ft 19 kts 89°
2026-05-04 15:03 41.97044 -87.88326 655 ft 18 kts 90°
2026-05-04 15:03 41.97044 -87.88148 654 ft 18 kts 90°
2026-05-04 15:04 41.97001 -87.88025 652 ft 9 kts 134°
2026-05-04 15:04 41.96958 -87.88026 652 ft 7 kts 212°
2026-05-04 15:04 41.96908 -87.88081 652 ft 22 kts 220°
2026-05-04 15:04 41.96599 -87.88443 655 ft 94 kts 221°
2026-05-04 15:05 41.95950 -87.89215 657 ft 152 kts 220°
2026-05-04 15:05 41.95087 -87.90243 1023 ft 169 kts 221°
2026-05-04 15:05 41.94231 -87.91245 1830 ft 164 kts 216°
2026-05-04 15:05 41.93236 -87.91843 2557 ft 162 kts 191°
2026-05-04 15:06 41.92083 -87.91521 2963 ft 181 kts 162°
2026-05-04 15:06 41.90918 -87.90704 3321 ft 198 kts 157°
2026-05-04 15:06 41.89674 -87.89747 3663 ft 214 kts 156°
2026-05-04 15:07 41.86830 -87.87577 4315 ft 255 kts 156°
2026-05-04 15:07 41.85329 -87.86140 4753 ft 279 kts 136°
2026-05-04 15:07 41.84365 -87.83835 5430 ft 294 kts 108°
2026-05-04 15:07 41.84169 -87.81118 6218 ft 300 kts 90°
2026-05-04 15:08 41.84284 -87.78323 6981 ft 305 kts 86°
2026-05-04 15:08 41.84451 -87.75472 7729 ft 310 kts 86°
2026-05-04 15:08 41.84636 -87.72595 8466 ft 315 kts 82°
2026-05-04 15:08 41.85278 -87.69814 9179 ft 317 kts 61°
2026-05-04 15:09 41.86372 -87.67264 9932 ft 320 kts 55°
2026-05-04 15:09 41.87560 -87.64723 10652 ft 323 kts 55°
2026-05-04 15:09 41.88723 -87.62161 11365 ft 327 kts 56°
2026-05-04 15:10 41.90990 -87.56842 12750 ft 334 kts 58°
2026-05-04 15:10 41.92120 -87.54092 13261 ft 343 kts 58°
2026-05-04 15:10 41.94430 -87.48380 14543 ft 351 kts 59°
2026-05-04 15:11 41.95593 -87.45486 15179 ft 355 kts 59°
2026-05-04 15:11 41.96768 -87.42564 15853 ft 359 kts 59°
2026-05-04 15:11 41.97951 -87.39613 16438 ft 363 kts 59°
2026-05-04 15:11 41.99149 -87.36623 17012 ft 367 kts 59°
2026-05-04 15:12 42.00360 -87.33596 17590 ft 370 kts 59°
2026-05-04 15:12 42.01578 -87.30548 18139 ft 374 kts 60°
2026-05-04 15:12 42.02810 -87.27464 18648 ft 378 kts 59°
2026-05-04 15:12 42.04053 -87.24345 19217 ft 380 kts 59°
2026-05-04 15:13 42.05308 -87.21196 19762 ft 383 kts 59°
2026-05-04 15:13 42.06565 -87.18034 20283 ft 386 kts 59°
2026-05-04 15:13 42.07825 -87.14860 20806 ft 388 kts 59°
2026-05-04 15:13 42.09085 -87.11686 21349 ft 390 kts 59°
2026-05-04 15:14 42.10335 -87.08406 21846 ft 394 kts 64°
2026-05-04 15:14 42.11193 -87.04892 22326 ft 399 kts 76°
2026-05-04 15:14 42.11543 -87.01195 22829 ft 402 kts 85°
2026-05-04 15:14 42.11682 -86.97444 23303 ft 405 kts 86°
2026-05-04 15:15 42.11784 -86.93652 23739 ft 409 kts 86°
2026-05-04 15:15 42.11893 -86.89787 24196 ft 411 kts 86°
2026-05-04 15:15 42.12010 -86.85958 24656 ft 413 kts 86°
2026-05-04 15:16 42.12271 -86.78221 25515 ft 418 kts 86°
2026-05-04 15:16 42.12408 -86.74332 25934 ft 420 kts 85°
2026-05-04 15:16 42.12681 -86.66455 26800 ft 423 kts 85°
2026-05-04 15:17 42.12816 -86.62510 27181 ft 426 kts 85°
2026-05-04 15:17 42.13088 -86.54539 27986 ft 430 kts 85°
2026-05-04 15:17 42.13223 -86.50496 28368 ft 432 kts 85°
2026-05-04 15:18 42.13356 -86.46476 28749 ft 434 kts 85°
2026-05-04 15:18 42.13489 -86.42432 29114 ft 437 kts 85°
2026-05-04 15:18 42.13621 -86.38316 29493 ft 439 kts 85°
2026-05-04 15:19 42.13881 -86.30144 30216 ft 442 kts 85°
2026-05-04 15:19 42.14011 -86.25973 30559 ft 445 kts 85°
2026-05-04 15:19 42.14267 -86.17687 31208 ft 449 kts 85°
2026-05-04 15:20 42.14393 -86.13452 31535 ft 450 kts 85°
2026-05-04 15:20 42.14426 -86.09260 31836 ft 453 kts 88°
2026-05-04 15:20 42.14406 -86.05024 32144 ft 455 kts 88°
2026-05-04 15:20 42.14375 -86.00751 32449 ft 457 kts 88°
2026-05-04 15:21 42.14341 -85.96516 32748 ft 458 kts 88°
2026-05-04 15:21 42.14307 -85.92227 33041 ft 460 kts 88°
2026-05-04 15:21 42.14236 -85.83581 33591 ft 463 kts 88°
2026-05-04 15:22 42.14200 -85.79261 33839 ft 465 kts 88°
2026-05-04 15:22 42.14163 -85.74937 34085 ft 467 kts 88°
2026-05-04 15:22 42.14084 -85.66194 34571 ft 471 kts 88°
2026-05-04 15:23 42.14041 -85.61757 34829 ft 472 kts 88°
2026-05-04 15:23 42.13997 -85.57393 35110 ft 471 kts 88°
2026-05-04 15:23 42.13952 -85.52979 35385 ft 471 kts 88°
2026-05-04 15:23 42.13905 -85.48570 35646 ft 470 kts 88°
2026-05-04 15:24 42.13807 -85.39807 36080 ft 471 kts 88°
2026-05-04 15:24 42.13701 -85.31028 36488 ft 471 kts 89°
2026-05-04 15:25 42.13646 -85.26595 36665 ft 472 kts 89°
2026-05-04 15:25 42.13586 -85.22174 36875 ft 472 kts 89°
2026-05-04 15:25 42.13529 -85.17829 37113 ft 471 kts 89°
2026-05-04 15:26 42.13405 -85.09032 37573 ft 472 kts 89°
2026-05-04 15:26 42.13340 -85.04581 37765 ft 472 kts 89°
2026-05-04 15:26 42.13194 -84.95763 38185 ft 473 kts 89°
2026-05-04 15:27 42.13114 -84.91351 38357 ft 473 kts 89°
2026-05-04 15:27 42.12950 -84.82509 38719 ft 474 kts 89°
2026-05-04 15:28 42.12694 -84.69270 38718 ft 475 kts 89°
2026-05-04 15:29 42.12421 -84.55976 38727 ft 475 kts 89°
2026-05-04 15:30 42.13194 -84.38385 38739 ft 471 kts 78°
2026-05-04 15:30 42.14696 -84.25377 38741 ft 471 kts 78°
2026-05-04 15:31 42.16157 -84.12324 38738 ft 471 kts 78°
2026-05-04 15:32 42.18549 -83.90501 38735 ft 471 kts 78°
2026-05-04 15:34 42.20889 -83.68733 38731 ft 471 kts 78°
2026-05-04 15:34 42.22097 -83.55623 38741 ft 473 kts 84°
2026-05-04 15:35 42.21617 -83.42350 38735 ft 477 kts 97°
2026-05-04 15:36 42.19409 -83.29320 38737 ft 477 kts 103°
2026-05-04 15:36 42.17798 -83.20673 38749 ft 476 kts 103°
2026-05-04 15:37 42.16207 -83.12049 38746 ft 476 kts 103°
2026-05-04 15:37 42.14615 -83.03411 38750 ft 476 kts 103°
2026-05-04 15:38 42.13016 -82.94759 38752 ft 477 kts 103°
2026-05-04 15:38 42.11412 -82.86112 38755 ft 477 kts 103°
2026-05-04 15:39 42.09810 -82.77504 38759 ft 477 kts 103°
2026-05-04 15:40 42.07390 -82.64585 38754 ft 477 kts 103°
2026-05-04 15:40 42.05756 -82.55920 38747 ft 477 kts 103°
2026-05-04 15:41 42.04126 -82.47318 38760 ft 477 kts 103°
2026-05-04 15:41 42.02496 -82.38738 38753 ft 477 kts 103°
2026-05-04 15:42 42.00848 -82.30093 38755 ft 477 kts 103°
2026-05-04 15:42 41.99202 -82.21516 38759 ft 477 kts 103°
2026-05-04 15:43 41.97543 -82.12910 38765 ft 476 kts 103°
2026-05-04 15:43 41.95889 -82.04366 38762 ft 477 kts 103°
2026-05-04 15:44 41.94218 -81.95751 38785 ft 477 kts 103°
2026-05-04 15:44 41.92546 -81.87171 38795 ft 477 kts 103°
2026-05-04 15:45 41.91302 -81.78464 38789 ft 476 kts 95°
2026-05-04 15:45 41.90523 -81.69671 38788 ft 476 kts 94°
2026-05-04 15:46 41.89764 -81.60911 38790 ft 475 kts 94°
2026-05-04 15:46 41.88986 -81.52133 38799 ft 476 kts 94°
2026-05-04 15:47 41.88191 -81.43333 38794 ft 476 kts 94°
2026-05-04 15:47 41.87391 -81.34570 38791 ft 477 kts 95°
2026-05-04 15:48 41.86578 -81.25745 38790 ft 476 kts 95°
2026-05-04 15:48 41.85347 -81.12540 38801 ft 477 kts 95°
2026-05-04 15:49 41.84518 -81.03753 38779 ft 476 kts 95°
2026-05-04 15:49 41.83690 -80.94998 38788 ft 476 kts 95°
2026-05-04 15:50 41.82851 -80.86217 38795 ft 476 kts 95°
2026-05-04 15:50 41.81999 -80.77388 38791 ft 477 kts 95°
2026-05-04 15:51 41.81148 -80.68633 38820 ft 477 kts 95°
2026-05-04 15:51 41.80718 -80.64240 38829 ft 477 kts 95°
2026-05-04 15:52 41.78631 -80.43201 38800 ft 477 kts 95°
2026-05-04 15:53 41.77747 -80.34391 38807 ft 477 kts 95°
2026-05-04 15:53 41.76862 -80.25649 38810 ft 477 kts 95°
2026-05-04 15:54 41.75964 -80.16847 38812 ft 478 kts 95°
2026-05-04 15:54 41.75059 -80.08054 38808 ft 478 kts 95°
2026-05-04 15:55 41.74153 -79.99308 38808 ft 479 kts 95°
2026-05-04 15:55 41.73235 -79.90495 38819 ft 480 kts 95°
2026-05-04 15:56 41.72310 -79.81704 38819 ft 479 kts 95°
2026-05-04 15:56 41.71374 -79.72861 38821 ft 479 kts 95°
2026-05-04 15:57 41.70435 -79.64069 38826 ft 479 kts 95°
2026-05-04 15:57 41.69494 -79.55310 38830 ft 479 kts 95°
2026-05-04 15:58 41.68544 -79.46552 38830 ft 479 kts 95°
2026-05-04 15:58 41.67583 -79.37730 38836 ft 479 kts 95°
2026-05-04 15:59 41.66622 -79.28980 38828 ft 479 kts 96°
2026-05-04 15:59 41.65653 -79.20220 38845 ft 479 kts 96°
2026-05-04 16:00 41.64669 -79.11420 38840 ft 478 kts 96°
2026-05-04 16:00 41.63684 -79.02666 38846 ft 478 kts 96°
2026-05-04 16:01 41.62694 -78.93926 38836 ft 478 kts 96°
2026-05-04 16:01 41.61697 -78.85181 38832 ft 479 kts 96°
2026-05-04 16:02 41.60686 -78.76374 38850 ft 480 kts 96°
2026-05-04 16:03 41.59166 -78.63232 38844 ft 481 kts 97°
2026-05-04 16:03 41.58136 -78.54424 38847 ft 481 kts 97°
2026-05-04 16:04 41.57106 -78.45654 38848 ft 481 kts 97°
2026-05-04 16:04 41.55541 -78.32440 38848 ft 482 kts 97°
2026-05-04 16:05 41.54490 -78.23660 38848 ft 481 kts 97°
2026-05-04 16:06 41.52904 -78.10477 38866 ft 482 kts 97°
2026-05-04 16:07 41.50711 -77.92844 38862 ft 483 kts 99°
2026-05-04 16:07 41.48826 -77.79676 38451 ft 482 kts 99°
2026-05-04 16:08 41.48203 -77.75343 38223 ft 478 kts 99°
2026-05-04 16:08 41.46356 -77.62464 37758 ft 471 kts 98°
2026-05-04 16:09 41.45126 -77.53916 37287 ft 469 kts 98°
2026-05-04 16:09 41.43895 -77.45408 36387 ft 472 kts 97°
2026-05-04 16:10 41.42644 -77.36812 35150 ft 482 kts 96°
2026-05-04 16:11 41.40727 -77.23640 33005 ft 483 kts 98°
2026-05-04 16:11 41.40086 -77.19286 32536 ft 477 kts 98°
2026-05-04 16:12 41.38195 -77.06519 31086 ft 464 kts 98°
2026-05-04 16:12 41.36348 -76.94141 29618 ft 451 kts 98°
2026-05-04 16:13 41.35134 -76.86060 28674 ft 442 kts 98°
2026-05-04 16:13 41.33870 -76.78153 27756 ft 436 kts 102°
2026-05-04 16:14 41.32029 -76.70570 26875 ft 429 kts 107°
2026-05-04 16:14 41.30038 -76.63191 26002 ft 422 kts 107°
2026-05-04 16:15 41.27108 -76.52307 24685 ft 412 kts 107°
2026-05-04 16:16 41.25209 -76.45251 23840 ft 405 kts 107°
2026-05-04 16:16 41.22396 -76.34806 22568 ft 397 kts 108°
2026-05-04 16:17 41.20547 -76.27976 21713 ft 391 kts 108°
2026-05-04 16:18 41.17823 -76.17953 20455 ft 383 kts 109°
2026-05-04 16:18 41.16921 -76.14640 20043 ft 380 kts 109°
2026-05-04 16:19 41.14252 -76.04878 18821 ft 372 kts 109°
2026-05-04 16:19 41.12501 -75.98500 18036 ft 367 kts 110°
2026-05-04 16:20 41.09913 -75.89099 16871 ft 359 kts 110°
2026-05-04 16:20 41.08212 -75.82933 16128 ft 355 kts 110°
2026-05-04 16:21 41.05675 -75.73772 14970 ft 351 kts 110°
2026-05-04 16:22 41.04007 -75.67760 14203 ft 348 kts 110°
2026-05-04 16:22 41.01521 -75.58825 13081 ft 343 kts 110°
2026-05-04 16:23 40.99053 -75.49999 12913 ft 342 kts 110°
2026-05-04 16:24 40.95756 -75.38238 12941 ft 343 kts 110°
2026-05-04 16:25 40.94093 -75.32324 12946 ft 342 kts 111°
2026-05-04 16:26 40.90783 -75.20592 12884 ft 334 kts 111°
2026-05-04 16:26 40.88379 -75.12106 10654 ft 326 kts 111°
2026-05-04 16:27 40.86839 -75.06654 9491 ft 309 kts 111°
2026-05-04 16:28 40.84645 -74.98875 7500 ft 298 kts 112°
2026-05-04 16:28 40.82515 -74.91305 6961 ft 294 kts 110°
2026-05-04 16:29 40.82114 -74.80847 6956 ft 296 kts 69°
2026-05-04 16:30 40.84261 -74.73270 6474 ft 292 kts 68°
2026-05-04 16:31 40.85718 -74.68273 5972 ft 290 kts 68°
2026-05-04 16:31 40.87929 -74.60795 5963 ft 293 kts 68°
2026-05-04 16:32 40.90163 -74.53294 5968 ft 294 kts 68°
2026-05-04 16:33 40.91677 -74.48257 5973 ft 294 kts 67°
2026-05-04 16:33 40.93182 -74.43260 5970 ft 294 kts 67°
2026-05-04 16:34 40.94686 -74.38252 5970 ft 295 kts 67°
2026-05-04 16:34 40.95437 -74.35739 5969 ft 294 kts 67°
2026-05-04 16:35 40.97683 -74.28271 5056 ft 289 kts 68°
2026-05-04 16:35 40.98727 -74.20727 4512 ft 280 kts 120°
2026-05-04 16:36 40.97525 -74.18817 4112 ft 271 kts 144°
2026-05-04 16:36 40.94634 -74.15621 3964 ft 272 kts 144°
2026-05-04 16:37 40.91466 -74.12985 3927 ft 263 kts 155°
2026-05-04 16:37 40.89878 -74.11851 3691 ft 257 kts 155°
2026-05-04 16:37 40.86843 -74.09634 3354 ft 240 kts 155°
2026-05-04 16:38 40.84019 -74.07566 3003 ft 223 kts 162°
2026-05-04 16:39 40.80377 -74.09070 2405 ft 174 kts 216°
2026-05-04 16:39 40.78499 -74.10542 1844 ft 140 kts 212°
2026-05-04 16:40 40.76916 -74.11599 1493 ft 122 kts 211°
2026-05-04 16:40 40.75384 -74.12575 1203 ft 123 kts 210°
2026-05-04 16:41 40.73855 -74.13546 900 ft 123 kts 209°
2026-05-04 16:41 40.71522 -74.15016 404 ft 126 kts 206°
2026-05-04 16:42 40.68850 -74.16736 18 ft 113 kts 205°
2026-05-04 16:43 40.68013 -74.17281 17 ft 30 kts 225°
2026-05-04 16:43 40.67977 -74.17613 17 ft 16 kts 297°
2026-05-04 16:43 40.68028 -74.17750 17 ft 16 kts 296°
2026-05-04 16:44 40.68213 -74.18019 17 ft 9 kts
2026-05-04 16:45 40.68358 -74.18003 17 ft 11 kts
2026-05-04 16:46 40.68502 -74.18224 17 ft 11 kts 277°
2026-05-04 16:46 40.68515 -74.18439 17 ft 12 kts 275°
2026-05-04 16:47 40.68463 -74.18499 17 ft 2 kts 186°
2026-05-04 16:47 40.68452 -74.18501 17 ft 0 kts 187°